Weather History for Kaneohe MCBH, HI

Change the Weather History Date:

Thursday, October 3, 2013

  Actual Average Record
Temperature  
Mean Temperature 82 °F -  
Max Temperature 86 °F 81 °F 91 °F (2012)
Min Temperature 77 °F 71 °F 68 °F (2001)
Cooling Degree Days 16    
Growing Degree Days 32 (Base 50)    
Moisture  
Dew Point 68 °F    
Average Humidity 64    
Maximum Humidity 73    
Minimum Humidity 55    
Precipitation  
Precipitation 0.00 in - - ()
Sea Level Pressure  
Sea Level Pressure 29.96 in    
Wind  
Wind Speed 8 mph (East)    
Max Wind Speed 12 mph    
Max Gust Speed 20 mph    
Visibility 7 miles    
Events      
Averages and records for this station are not official NWS values.
T = Trace of Precipitation, MM = Missing Value Source: NWS Daily Summary

Daily Weather History Graph

Daily Weather History Graph

Search for Another Location

Airport:

Trip Planner

Search our weather history database for the weather conditions in past years. The results will help you decide how hot, cold, wet, or windy it might be!

Date:

Astronomy

Oct. 03, 2013 Rise Set
Actual Time 6:23 AM HST 6:16 PM HST
Civil Twilight 6:00 AM HST 6:38 PM HST
Nautical Twilight 5:34 AM HST 7:04 PM HST
Astronomical Twilight 5:09 AM HST 7:30 PM HST
Moon 5:13 AM HST (10/3) 5:29 PM HST (10/3)
Length of Visible Light 12h 37m
Length of Day
11h 53m
Waning Crescent, 1% of the Moon is Illuminated
Oct 3
Waning Crescent
Oct 4
New
Oct 11
First Quarter
Oct 18
Full
Oct 26
Last Quarter

Hourly Weather History & Observations

Time (HST) Temp. Heat Index Dew Point Humidity Pressure Visibility Wind Dir Wind Speed Gust Speed Precip Events Conditions
12:57 AM 77.4 °F - 68.0 °F 73% 29.96 in 7.0 mi East 8.1 mph - N/A   Partly Cloudy
1:57 AM 77.9 °F - 66.9 °F 69% 29.95 in 7.0 mi Variable 5.8 mph - N/A   Scattered Clouds
2:57 AM 79.7 °F - 68.0 °F 67% 29.94 in 7.0 mi East 4.6 mph - N/A   Scattered Clouds
3:57 AM 79.7 °F - 68.0 °F 67% 29.93 in 7.0 mi East 9.2 mph - N/A   Scattered Clouds
4:57 AM 79.7 °F - 68.0 °F 67% 29.94 in 7.0 mi ESE 8.1 mph 17.3 mph N/A   Overcast
5:57 AM 79.7 °F - 68.0 °F 67% 29.94 in 7.0 mi ENE 8.1 mph - N/A   Scattered Clouds
6:57 AM 79.7 °F - 68.0 °F 67% 29.95 in 7.0 mi ESE 8.1 mph - N/A   Partly Cloudy
7:57 AM 79.7 °F - 68.0 °F 67% 29.98 in 7.0 mi East 6.9 mph - N/A   Scattered Clouds
8:23 AM 80.6 °F 83.2 °F 68.0 °F 65% 29.99 in 6.2 mi East 6.9 mph - N/A   Overcast
8:57 AM 80.6 °F 83.2 °F 68.0 °F 65% 29.99 in 7.0 mi East 8.1 mph - N/A   Overcast
9:23 AM 80.6 °F 83.9 °F 69.8 °F 70% 30.00 in 6.2 mi East 11.5 mph - N/A   Overcast
9:57 AM 80.6 °F 83.6 °F 69.1 °F 68% 29.99 in 7.0 mi East 10.4 mph 17.3 mph N/A   Overcast
10:57 AM 82.4 °F 86.3 °F 70.0 °F 66% 29.98 in 7.0 mi East 10.4 mph 16.1 mph N/A   Mostly Cloudy
11:15 AM 82.4 °F 86.3 °F 69.8 °F 66% 29.99 in 6.2 mi East 6.9 mph 16.1 mph N/A   Mostly Cloudy
11:57 AM 84.2 °F 88.4 °F 70.0 °F 62% 29.97 in 7.0 mi ESE 11.5 mph 18.4 mph N/A   Scattered Clouds
12:39 PM 84.2 °F 87.3 °F 68.0 °F 58% 29.97 in 6.2 mi ENE 10.4 mph 17.3 mph N/A   Mostly Cloudy
12:57 PM 84.2 °F 87.3 °F 68.0 °F 58% 29.95 in 7.0 mi ENE 10.4 mph 19.6 mph N/A   Mostly Cloudy
1:07 PM 86.0 °F 89.4 °F 68.0 °F 55% 29.96 in 6.2 mi ENE 11.5 mph 18.4 mph N/A   Scattered Clouds
1:57 PM 86.0 °F 89.4 °F 68.0 °F 55% 29.93 in 10.0 mi East 8.1 mph 16.1 mph N/A   Scattered Clouds
2:57 PM 86.0 °F 89.4 °F 68.0 °F 55% 29.91 in 7.0 mi Variable 6.9 mph 17.3 mph N/A   Scattered Clouds
3:20 PM 86.0 °F 89.4 °F 68.0 °F 55% 29.93 in 6.2 mi East 11.5 mph 18.4 mph N/A   Mostly Cloudy
3:50 PM 86.0 °F 89.4 °F 68.0 °F 55% 29.92 in 6.2 mi ESE 9.2 mph 17.3 mph N/A   Scattered Clouds
3:57 PM 86.0 °F 89.4 °F 68.0 °F 55% 29.91 in 7.0 mi ENE 10.4 mph - N/A   Mostly Cloudy
4:15 PM 86.0 °F 89.4 °F 68.0 °F 55% 29.93 in 6.2 mi East 6.9 mph 16.1 mph N/A   Scattered Clouds
4:57 PM 86.0 °F 89.4 °F 68.0 °F 55% 29.91 in 7.0 mi East 8.1 mph 17.3 mph N/A   Scattered Clouds
6:57 PM 82.4 °F 84.8 °F 66.9 °F 59% 29.94 in 7.0 mi Variable 6.9 mph - N/A   Scattered Clouds
7:57 PM 78.8 °F - 68.0 °F 69% 29.96 in 7.0 mi East 9.2 mph - N/A   Mostly Cloudy
8:29 PM 78.8 °F - 68.0 °F 69% 29.99 in 6.2 mi Variable 5.8 mph 17.3 mph N/A   Mostly Cloudy
8:38 PM 78.8 °F - 68.0 °F 69% 29.99 in 6.2 mi East 9.2 mph - N/A   Scattered Clouds
8:57 PM 78.8 °F - 68.0 °F 69% 29.98 in 10.0 mi East 8.1 mph 18.4 mph N/A   Clear
9:57 PM 78.8 °F - 66.9 °F 67% 29.99 in 10.0 mi East 5.8 mph - N/A   Partly Cloudy
10:57 PM 78.8 °F - 66.9 °F 67% 29.99 in 10.0 mi East 8.1 mph 17.3 mph N/A   Clear
11:57 PM 77.0 °F - 66.9 °F 71% 29.97 in 10.0 mi East 8.1 mph 17.3 mph N/A   Scattered Clouds